Weather History for Bemidji, MN

Change the Weather History Date:

Sunday, July 7, 2013

  Actual Average Record
Temperature  
Mean Temperature 72 °F -  
Max Temperature 85 °F 80 °F 99 °F (1988)
Min Temperature 56 °F 57 °F 40 °F (1984)
Cooling Degree Days 6    
Growing Degree Days 22 (Base 50)    
Moisture  
Dew Point 63 °F    
Average Humidity 80    
Maximum Humidity 100    
Minimum Humidity 47    
Precipitation  
Precipitation 0.00 in - - ()
Sea Level Pressure  
Sea Level Pressure 29.88 in    
Wind  
Wind Speed 2 mph (NW)    
Max Wind Speed 15 mph    
Max Gust Speed 17 mph    
Visibility 6 miles    
Events Fog , Rain    
Averages and records for this station are not official NWS values.
T = Trace of Precipitation, MM = Missing Value Source: NWS Daily Summary

Daily Weather History Graph

Daily Weather History Graph

Search for Another Location

Airport:

Trip Planner

Search our weather history database for the weather conditions in past years. The results will help you decide how hot, cold, wet, or windy it might be!

Date:

Astronomy

Jul. 07, 2013 Rise Set
Actual Time 5:30 AM CDT 9:18 PM CDT
Civil Twilight 4:51 AM CDT 9:57 PM CDT
Nautical Twilight 3:57 AM CDT 10:51 PM CDT
Astronomical Twilight 2:38 AM CDT 12:09 AM CDT
Moon 5:12 AM CDT (7/7) 8:36 PM CDT (7/7)
Length of Visible Light 17h 06m
Length of Day
15h 47m
Waning Crescent, 0% of the Moon is Illuminated
Jul 7
Waning Crescent
Jul 8
New
Jul 15
First Quarter
Jul 22
Full
Jul 29
Last Quarter

Hourly Weather History & Observations

Time (CDT) Temp. Heat Index Dew Point Humidity Pressure Visibility Wind Dir Wind Speed Gust Speed Precip Events Conditions
12:11 AM 63.3 °F - 62.6 °F 97% 29.85 in 7.0 mi Calm Calm - N/A   Overcast
12:31 AM 62.6 °F - 61.5 °F 96% 29.84 in 0.8 mi Calm Calm - N/A   Overcast
12:51 AM 63.9 °F - 63.5 °F 99% 29.84 in 0.2 mi Calm Calm - N/A Fog Fog
1:11 AM 61.7 °F - 61.0 °F 97% 29.84 in 0.8 mi Calm Calm - N/A   Overcast
1:31 AM 62.1 °F - 61.7 °F 99% 29.84 in 0.2 mi Calm Calm - N/A Fog Fog
1:51 AM 60.1 °F - 59.7 °F 99% 29.84 in 0.2 mi Calm Calm - N/A Fog Fog
2:11 AM 61.5 °F - 61.3 °F 99% 29.84 in 0.2 mi Calm Calm - N/A Fog Fog
2:31 AM 60.1 °F - 59.9 °F 99% 29.82 in 0.2 mi Calm Calm - N/A Fog Fog
2:51 AM 61.3 °F - 61.3 °F 100% 29.83 in 0.8 mi Calm Calm - N/A   Overcast
3:11 AM 59.7 °F - 59.5 °F 99% 29.84 in 0.2 mi Calm Calm - N/A Fog Fog
3:31 AM 59.2 °F - 59.0 °F 99% 29.84 in 2.0 mi Calm Calm - N/A   Overcast
3:52 AM 59.2 °F - 58.8 °F 99% 29.84 in 0.2 mi Calm Calm - N/A Fog Fog
4:11 AM 59.7 °F - 59.5 °F 99% 29.85 in 0.2 mi NNW 3.5 mph - N/A Rain Light Rain
4:31 AM 60.8 °F - 60.6 °F 99% 29.85 in 0.2 mi Calm Calm - N/A Rain Rain
4:52 AM 60.8 °F - 60.6 °F 99% 29.85 in 0.2 mi Calm Calm - N/A Rain Light Rain
5:11 AM 61.2 °F - 61.2 °F 100% 29.86 in 0.2 mi Calm Calm - N/A Fog Fog
5:31 AM 61.7 °F - 61.7 °F 100% 29.85 in 0.2 mi Calm Calm - N/A Rain Light Rain
5:51 AM 61.9 °F - 61.9 °F 100% 29.86 in 0.2 mi Calm Calm - N/A Rain Rain
6:11 AM 62.6 °F - 62.6 °F 100% 29.86 in 0.2 mi Calm Calm - N/A Rain Light Rain
6:31 AM 63.5 °F - 63.5 °F 100% 29.86 in 0.2 mi Calm Calm - N/A Rain Light Rain
6:51 AM 64.4 °F - 64.4 °F 100% 29.86 in 0.2 mi Calm Calm - N/A Rain Heavy Rain
7:11 AM 65.1 °F - 64.9 °F 99% 29.86 in 0.2 mi Calm Calm - N/A Rain Light Rain
7:31 AM 65.5 °F - 65.5 °F 100% 29.86 in 0.2 mi Calm Calm - N/A Rain Rain
7:51 AM 66.0 °F - 65.8 °F 99% 29.86 in 0.2 mi Calm Calm - N/A Rain Rain
8:11 AM 66.4 °F - 66.4 °F 100% 29.87 in 0.2 mi Calm Calm - N/A Rain Rain
8:31 AM 66.4 °F - 66.2 °F 99% 29.87 in 0.2 mi Calm Calm - N/A Rain Light Rain
8:51 AM 66.9 °F - 66.6 °F 99% 29.87 in 0.5 mi Calm Calm - N/A Rain Rain
9:11 AM 67.3 °F - 67.3 °F 100% 29.87 in 1.0 mi Calm Calm - N/A Rain Light Rain
9:31 AM 67.5 °F - 67.3 °F 99% 29.88 in 2.5 mi Calm Calm - N/A   Overcast
9:51 AM 68.0 °F - 67.3 °F 98% 29.88 in 4.0 mi Calm Calm - N/A   Overcast
10:11 AM 68.5 °F - 67.1 °F 95% 29.89 in 5.0 mi Calm Calm - N/A   Overcast
10:31 AM 69.3 °F - 67.1 °F 93% 29.88 in 7.0 mi Calm Calm - N/A   Overcast
10:51 AM 70.7 °F - 67.3 °F 89% 29.88 in 7.0 mi Calm Calm - N/A   Overcast
11:11 AM 71.8 °F - 67.5 °F 86% 29.89 in 7.0 mi Calm Calm - N/A   Overcast
11:31 AM 73.6 °F - 67.5 °F 81% 29.89 in 7.0 mi Calm Calm - N/A   Overcast
11:51 AM 78.6 °F - 67.6 °F 69% 29.88 in 7.0 mi WSW 3.5 mph - N/A   Mostly Cloudy
12:11 PM 79.0 °F - 67.1 °F 67% 29.88 in 7.0 mi South 3.5 mph - N/A   Scattered Clouds
12:31 PM 80.8 °F 83.2 °F 67.1 °F 63% 29.88 in 7.0 mi Calm Calm - N/A   Scattered Clouds
12:51 PM 81.7 °F 84.2 °F 66.9 °F 61% 29.89 in 7.0 mi Calm Calm - N/A   Mostly Cloudy
1:11 PM 81.5 °F 83.9 °F 66.7 °F 61% 29.89 in 10.0 mi Calm Calm - N/A   Scattered Clouds
1:31 PM 81.3 °F 83.6 °F 66.7 °F 61% 29.89 in 10.0 mi ENE 3.5 mph - N/A   Mostly Cloudy
1:51 PM 83.1 °F 85.9 °F 67.3 °F 59% 29.89 in 10.0 mi NNE 3.5 mph - N/A   Overcast
2:11 PM 82.2 °F 84.9 °F 67.6 °F 61% 29.89 in 10.0 mi NNE 3.5 mph - N/A   Overcast
2:31 PM 82.4 °F 85.2 °F 67.6 °F 61% 29.88 in 10.0 mi East 3.5 mph - N/A   Mostly Cloudy
2:51 PM 81.5 °F 84.2 °F 68.0 °F 63% 29.88 in 10.0 mi ENE 3.5 mph - N/A   Mostly Cloudy
3:11 PM 82.9 °F 85.8 °F 67.8 °F 60% 29.88 in 10.0 mi East 4.6 mph - N/A   Mostly Cloudy
3:31 PM 83.5 °F 85.3 °F 65.1 °F 54% 29.88 in 10.0 mi WNW 6.9 mph - N/A   Mostly Cloudy
3:51 PM 85.3 °F 87.1 °F 65.3 °F 51% 29.89 in 10.0 mi West 11.5 mph 16.1 mph N/A   Mostly Cloudy
4:11 PM 85.5 °F 87.1 °F 64.8 °F 50% 29.89 in 10.0 mi WNW 13.8 mph 17.3 mph N/A   Scattered Clouds
4:31 PM 83.3 °F 85.7 °F 66.7 °F 57% 29.89 in 10.0 mi WNW 12.7 mph - N/A   Clear
4:51 PM 81.7 °F 83.8 °F 66.0 °F 59% 29.89 in 10.0 mi NW 15.0 mph - N/A   Clear
5:11 PM 82.8 °F 84.0 °F 63.5 °F 52% 29.90 in 10.0 mi WNW 15.0 mph - N/A   Clear
5:31 PM 82.0 °F 83.0 °F 62.1 °F 51% 29.90 in 10.0 mi West 13.8 mph - N/A   Clear
5:51 PM 80.4 °F 81.2 °F 60.3 °F 50% 29.90 in 10.0 mi West 12.7 mph - N/A   Clear
6:11 PM 80.6 °F 81.6 °F 61.5 °F 52% 29.91 in 10.0 mi WNW 11.5 mph - N/A   Clear
6:31 PM 79.7 °F - 61.5 °F 54% 29.90 in 10.0 mi NW 11.5 mph - N/A   Clear
6:51 PM 80.4 °F 81.1 °F 59.5 °F 49% 29.90 in 10.0 mi NW 12.7 mph - N/A   Clear
7:11 PM 78.4 °F - 59.4 °F 52% 29.90 in 10.0 mi WNW 15.0 mph - N/A   Clear
7:31 PM 78.8 °F - 56.8 °F 47% 29.91 in 10.0 mi NW 11.5 mph - N/A   Clear
7:51 PM 77.9 °F - 57.2 °F 49% 29.91 in 10.0 mi WNW 11.5 mph - N/A   Clear
8:11 PM 75.9 °F - 58.3 °F 54% 29.92 in 10.0 mi NW 8.1 mph - N/A   Clear
8:31 PM 74.5 °F - 59.0 °F 58% 29.92 in 10.0 mi NNW 5.8 mph - N/A   Clear
8:51 PM 72.0 °F - 59.4 °F 64% 29.93 in 10.0 mi NNW 4.6 mph - N/A   Clear
9:11 PM 71.6 °F - 59.2 °F 65% 29.93 in 10.0 mi Calm Calm - N/A   Clear
9:31 PM 69.8 °F - 59.5 °F 70% 29.93 in 10.0 mi Calm Calm - N/A   Clear
9:51 PM 69.1 °F - 59.5 °F 72% 29.94 in 10.0 mi West 3.5 mph - N/A   Clear
10:11 PM 66.4 °F - 59.4 °F 78% 29.94 in 10.0 mi Calm Calm - N/A   Clear
10:31 PM 64.0 °F - 58.5 °F 82% 29.95 in 10.0 mi Calm Calm - N/A   Clear
10:50 PM 60.4 °F - 57.2 °F 89% 29.95 in 10.0 mi Calm Calm - N/A   Clear
11:11 PM 61.3 °F - 57.9 °F 89% 29.96 in 10.0 mi Calm Calm - N/A   Clear
11:31 PM 58.1 °F - 56.1 °F 93% 29.95 in 10.0 mi Calm Calm - N/A   Clear
11:50 PM 56.5 °F - 54.7 °F 94% 29.96 in 10.0 mi West 4.6 mph - N/A   Clear